Temperature
29 29 29 29 29 28 29 29 29 28 28 28 27 26 25 24 22 22 21 20 20 19 18 18 17 17 17 17 17 16 16 16 16 16 16 16 16 16 15 15 15 15 15 15
27 28 28 28 28 28 28 28 28 28 28 27 26 25 24 23 22 21 21 20 19 18 18 17 17 17 17 16 16 16 16 16 16 16 16 15 15 15 15 15 15 15 14 14
27 28 28 27 28 28 28 28 28 28 27 26 25 24 23 22 22 21 20 19 19 18 18 17 17 16 16 16 16 16 16 16 15 15 15 15 15 15 15 15 14 14 14 14
27 26 26 28 27 28 27 27 27 27 26 25 24 23 22 21 21 20 20 19 18 18 17 17 17 16 16 16 15 15 15 15 15 15 15 15 15 14 14 14 14 14 14 14
27 27 27 27 27 27 27 26 26 26 25 24 23 23 22 20 20 20 19 18 18 17 17 17 16 16 16 15 15 15 15 15 14 14 14 14 14 14 14 14 14 14 13 13
26 25 26 27 27 26 26 26 25 25 24 23 23 25 23 20 19 18 18 17 17 17 17 16 16 15 15 15 15 15 14 14 14 14 14 14 14 14 14 14 13 13 13 13
25 25 26 26 25 25 25 25 24 23 23 22 23 23 21 19 18 18 17 17 16 16 16 16 15 15 15 14 14 14 14 14 14 13 14 14 14 14 13 13 13 13 13 13
25 25 25 24 25 25 24 22 22 22 21 21 20 19 19 18 17 17 16 16 16 16 15 15 15 15 14 14 14 14 13 13 13 13 13 13 13 13 13 13 13 13 12 12
25 25 23 23 23 22 21 21 21 21 20 19 19 19 18 17 17 16 16 16 16 15 15 15 15 14 14 14 13 13 13 13 13 13 13 13 13 13 12 12 13 12 12 12
23 23 22 21 21 20 20 20 20 20 19 19 19 18 18 17 16 16 16 15 15 15 15 14 14 14 14 13 13 13 13 12 13 13 13 12 12 12 12 12 12 12 12 12
22 22 22 21 20 20 19 19 19 19 19 19 18 18 17 17 16 16 15 15 15 14 14 14 14 14 13 13 13 13 13 12 12 12 12 12 12 12 12 12 12 12 12 12
23 22 22 21 20 19 19 18 18 18 18 18 18 17 17 16 16 15 15 15 14 14 14 14 14 13 13 13 13 13 13 12 13 13 12 12 12 12 12 12 12 11 11 11
21 20 20 19 19 18 18 18 18 18 18 17 17 17 16 16 15 15 14 14 14 14 14 14 13 13 13 13 13 12 12 12 12 13 12 12 12 12 12 12 11 11 11 11
18 18 19 18 18 18 18 17 17 17 17 17 16 16 16 15 15 14 14 14 14 13 13 13 13 13 13 13 12 12 12 12 12 12 12 12 12 12 12 12 12 11 11 11
18 18 18 18 17 17 17 17 17 16 16 16 16 15 15 15 14 14 14 13 13 13 13 13 13 13 13 12 12 12 12 12 12 12 12 12 12 12 12 11 11 11 11 11
17 17 17 17 17 17 17 17 17 16 16 15 15 15 15 14 14 13 13 13 13 13 13 12 12 12 12 12 12 12 12 12 12 12 12 12 12 12 11 11 11 11 11 11
17 17 17 17 17 17 17 16 16 16 15 15 14 14 14 14 13 13 13 13 12 12 12 12 12 12 12 11 11 12 12 12 12 12 12 12 12 12 11 11 11 11 11 10
17 17 17 17 17 16 16 16 15 15 15 14 14 14 13 13 13 13 12 12 12 12 11 11 11 11 11 11 11 11 11 12 11 11 11 11 11 11 11 11 11 10 10 10
17 17 16 16 16 16 15 15 15 15 14 14 14 13 13 13 12 12 12 12 12 12 11 11 11 11 11 11 11 11 11 11 11 11 11 11 10 11 11 11 10 10 10 10
16 16 16 16 16 15 15 15 14 14 14 13 13 13 13 12 12 12 12 12 12 12 11 11 11 11 11 11 11 11 11 11 11 11 11 11 11 10 10 10 10 10 10 10
16 16 16 15 15 15 14 14 14 14 14 13 13 13 13 12 12 12 12 12 12 11 11 11 11 11 11 11 11 10 10 11 11 11 10 10 10 10 10 10 10 10 10 9
15 15 15 15 14 14 14 14 14 14 13 13 13 13 12 12 12 12 12 12 12 11 11 11 11 11 10 10 10 10 10 10 10 10 10 10 10 10 9 9 9 9 9 9
14 14 14 14 14 14 14 13 13 13 13 13 13 12 12 12 12 12 12 12 11 11 11 11 11 10 10 10 10 10 10 10 10 10 10 9 9 9 9 9 9 9 9 9
14 14 14 14 13 13 13 13 13 13 13 12 12 12 12 12 12 12 11 11 11 11 10 10 10 10 10 10 10 10 10 9 9 9 9 9 9 9 9 9 9 9 8 8
13 13 13 13 13 13 13 13 12 12 12 13 12 12 12 12 12 11 11 11 11 10 10 10 10 10 10 10 9 9 9 9 9 9 9 9 9 9 8 8 8 8 8 8
13 13 13 13 13 13 13 13 13 13 13 13 12 12 12 12 11 11 11 10 10 10 10 10 9 9 9 9 9 9 9 9 9 9 8 8 8 8 8 8 8 8 8 8
13 13 13 13 13 13 13 13 13 13 13 12 12 12 12 11 11 11 10 10 10 10 9 9 9 9 9 9 9 9 8 8 8 8 8 8 8 8 8 7 7 7 7 7
Wind_Speed
6 5 5 7 7 8 9 9 9 7 6 3 1 1 1 3 4 4 4 4 3 3 3 3 3 3 2 2 2 2 1 1 1 1 1 0 0 1 1 2 2 2 1 2
7 6 6 7 8 8 8 7 7 7 5 1 1 1 2 2 4 4 4 3 3 3 3 3 3 2 2 2 2 2 1 1 1 1 1 1 0 0 1 1 1 1 2 2
8 6 8 9 7 7 7 6 7 7 3 1 1 1 1 2 4 4 3 3 3 3 2 2 2 2 2 2 2 2 1 1 1 1 1 1 1 1 1 1 1 2 2 2
7 7 10 3 1 4 6 5 4 3 1 2 1 1 1 2 3 2 2 2 2 2 2 2 2 2 2 2 1 1 1 1 1 1 1 1 1 1 1 2 2 2 2 2
7 10 8 5 4 5 6 6 3 3 2 2 2 3 3 2 1 1 1 2 2 1 1 1 1 2 2 1 1 1 1 0 1 1 1 2 1 2 2 2 2 2 2 2
8 9 8 2 3 3 5 6 2 2 3 3 3 4 1 2 2 2 3 2 2 2 2 2 1 1 1 1 1 1 1 2 2 2 2 2 2 2 2 2 2 3 2 2
10 10 6 2 2 4 7 1 2 2 3 3 2 3 2 3 3 4 4 4 3 3 3 2 1 1 0 0 1 2 2 2 2 2 2 2 2 2 2 2 2 3 3 2
8 10 5 4 2 3 2 3 1 2 2 2 2 3 3 4 4 4 4 4 4 4 3 2 1 0 0 0 1 1 1 1 1 2 2 1 2 2 2 2 2 2 3 3
4 2 2 1 1 2 1 0 1 2 2 3 3 3 3 3 3 3 3 3 3 3 3 2 1 1 1 1 1 1 1 1 1 1 1 2 2 2 2 2 3 2 2 2
3 2 1 1 1 0 0 0 1 2 3 4 4 4 4 3 3 3 2 2 2 2 2 2 1 1 1 1 1 1 1 1 2 2 2 2 2 2 2 2 2 2 2 2
5 3 3 3 2 1 1 1 2 2 3 3 3 4 3 3 3 2 2 2 2 1 1 1 1 1 1 1 1 1 2 2 2 2 2 2 1 2 2 2 2 3 3 2
5 3 3 2 2 2 3 2 2 2 2 3 3 3 3 3 2 2 2 2 2 1 0 1 1 1 1 2 2 2 2 2 2 2 2 2 2 1 1 2 2 2 2 3
3 2 2 1 2 3 3 3 2 2 3 3 2 3 3 3 2 2 2 2 1 1 1 1 1 1 2 2 3 3 3 3 2 2 2 2 2 2 2 3 5 6 5 4
2 2 3 3 2 3 3 3 3 2 3 3 2 2 3 2 2 2 2 2 2 2 2 2 2 2 2 2 3 4 4 2 3 3 2 3 3 3 3 3 3 3 5 7
4 4 3 3 3 3 3 4 4 3 3 3 3 2 2 2 1 1 1 2 2 2 2 3 3 3 3 3 3 4 4 3 3 3 3 3 3 3 4 4 4 3 3 3
4 3 3 4 4 4 4 4 4 3 3 3 2 2 1 1 1 1 2 2 3 3 3 3 3 3 3 3 4 4 4 3 4 3 3 3 3 4 4 4 4 4 4 3
5 5 4 4 4 4 4 3 3 3 3 2 2 2 2 2 1 1 2 3 3 3 3 3 3 3 3 4 5 4 4 3 5 4 3 3 3 4 4 4 4 4 4 3
5 5 5 5 4 4 4 3 3 3 3 2 2 2 2 2 2 2 3 2 3 3 3 3 3 3 4 4 5 5 4 4 4 4 4 4 4 4 4 4 5 5 5 4
4 4 4 4 4 4 3 3 3 2 3 3 3 2 2 2 2 2 2 2 3 3 3 3 3 5 4 4 4 5 5 5 5 4 4 4 5 5 5 5 5 5 5 5
3 3 3 3 3 4 3 3 2 2 3 3 2 2 2 2 2 2 3 3 3 3 3 3 4 4 4 4 5 5 6 6 6 5 5 5 5 5 5 5 5 5 5 5
3 3 4 3 4 4 3 3 3 3 3 3 3 2 2 2 3 3 4 3 2 2 3 4 4 3 4 3 5 5 5 5 5 5 5 5 5 5 6 5 5 5 5 5
3 3 4 4 4 3 3 3 2 2 2 2 2 2 3 3 3 4 4 3 3 2 4 4 3 2 4 5 5 5 5 5 5 5 5 5 5 6 6 6 6 5 5 5
3 3 3 3 3 3 2 2 2 2 2 3 3 3 4 3 3 3 3 2 2 2 3 3 2 2 4 5 5 5 5 5 5 5 5 5 5 5 5 6 6 5 5 5
2 3 2 2 2 2 2 2 1 1 2 2 3 3 3 3 3 3 2 0 1 1 3 1 1 3 5 4 4 4 4 5 5 5 5 5 4 4 5 5 5 5 5 5
2 2 2 2 2 2 2 2 2 2 2 2 2 2 2 2 2 2 2 1 1 2 2 2 3 4 4 3 3 3 3 4 4 4 4 4 5 4 4 5 5 5 5 5
1 2 1 2 1 1 2 2 2 2 2 1 1 1 1 1 1 1 1 2 2 2 2 2 2 3 2 2 2 3 3 3 3 3 3 4 4 5 4 4 6 5 5 5
2 2 2 2 1 1 1 2 2 2 2 1 1 1 1 0 0 1 1 1 1 1 2 2 2 2 2 1 2 2 2 2 3 3 4 4 4 4 4 5 5 5 5 5
Wind_Direction
268 273 254 246 237 230 244 264 274 281 285 299 304 299 168 164 155 152 150 142 134 135 125 125 112 102 87 70 64 72 89 86 75 60 56 351 289 280 271 264 253 250 257 264
245 242 240 245 240 233 239 253 260 269 277 3 324 118 145 169 173 169 159 149 144 141 126 124 121 112 98 82 80 83 73 52 51 48 34 11 346 332 325 334 323 298 275 278
244 231 238 237 232 230 231 243 258 267 286 163 188 172 202 191 185 182 171 167 163 154 143 141 137 128 123 108 100 94 79 43 25 31 27 7 355 348 334 332 332 328 312 296
244 230 238 234 180 236 236 245 256 275 270 190 163 159 156 168 174 175 169 162 156 154 148 146 135 135 134 123 116 112 90 42 8 320 317 312 310 316 292 279 286 291 301 300
241 239 241 212 196 219 235 242 251 244 193 162 130 156 139 99 97 147 137 130 134 135 116 111 122 127 137 138 135 139 143 235 275 276 276 277 273 278 285 283 277 272 279 295
238 251 250 199 146 227 245 231 174 182 179 175 189 234 151 110 106 98 94 100 104 101 90 79 70 112 147 165 162 194 209 223 242 260 262 265 268 271 270 268 270 272 274 277
236 243 245 93 132 208 234 251 117 180 186 190 206 339 81 122 122 114 104 96 91 86 80 75 63 45 99 242 228 231 224 232 243 252 252 256 264 262 255 257 268 274 275 268
233 241 232 102 188 236 353 30 120 157 162 158 113 90 114 128 125 121 108 95 93 92 83 71 60 62 355 319 291 253 224 232 251 267 269 252 250 255 256 259 258 266 271 278
252 262 64 93 6 8 4 360 163 174 159 158 148 135 137 144 137 126 116 107 104 99 86 64 44 13 342 324 299 266 233 248 257 264 270 260 248 248 247 249 261 270 271 278
242 211 187 197 206 207 304 250 179 173 169 173 166 155 154 151 146 144 132 127 126 112 83 52 36 15 347 324 307 287 279 271 261 261 259 256 262 261 271 280 274 266 267 284
238 239 229 212 207 183 123 103 112 137 155 159 158 161 160 156 156 157 151 139 135 115 74 40 36 24 338 316 298 292 288 271 263 259 261 258 262 303 286 298 300 285 280 281
253 237 243 223 193 177 158 147 138 143 155 154 159 161 157 160 165 174 175 165 163 154 120 27 4 351 328 304 287 278 277 270 269 273 270 259 241 236 161 228 202 228 268 290
275 249 257 216 196 191 178 165 173 175 160 155 147 150 163 165 173 187 191 193 207 222 246 290 314 323 312 299 283 277 280 278 277 279 275 273 273 266 250 214 203 211 214 220
237 213 209 200 191 174 163 155 157 147 141 141 142 155 163 164 170 189 204 223 233 244 253 264 276 289 295 290 278 273 273 262 262 263 268 272 273 275 271 267 259 249 211 200
214 219 211 180 161 159 157 159 163 158 151 147 153 160 164 167 187 210 218 234 248 252 261 269 277 288 292 286 278 271 273 272 264 268 263 266 273 280 282 279 278 275 275 220
194 186 170 165 166 170 177 178 171 164 164 168 173 172 158 163 212 241 259 259 262 272 278 278 279 286 287 281 274 260 256 269 264 260 258 263 271 277 281 278 280 277 274 282
197 193 186 183 185 186 186 186 179 171 175 181 176 169 174 187 211 251 268 269 272 274 272 270 271 277 276 272 271 270 269 245 226 251 259 266 272 276 280 281 287 285 279 275
212 207 202 198 195 192 190 185 180 176 181 177 171 180 198 217 240 256 268 278 278 274 273 269 272 272 271 271 273 276 274 272 260 256 260 267 276 279 280 279 283 286 283 257
195 197 196 194 192 186 183 184 179 171 166 168 176 191 215 231 240 247 256 263 265 265 271 280 280 269 269 275 278 262 265 265 264 259 260 256 263 272 277 280 280 281 283 277
166 165 162 159 161 167 169 167 160 158 163 165 169 182 215 231 234 243 256 264 274 292 281 275 266 270 275 272 274 265 261 261 262 261 259 263 267 273 276 277 278 279 282 283
150 151 148 139 140 148 151 152 154 162 174 182 189 204 226 245 249 251 256 270 283 287 278 259 256 266 275 283 261 265 263 264 266 267 265 267 270 274 276 278 281 282 284 285
131 130 133 134 138 143 146 154 159 174 192 206 218 228 238 246 252 261 267 272 273 276 266 267 269 309 310 290 267 268 270 270 268 268 268 271 274 274 277 281 282 283 284 285
130 132 137 141 146 152 161 173 179 194 217 228 237 246 256 263 263 268 278 283 281 289 280 291 335 353 291 278 276 266 267 269 269 269 271 273 274 275 276 280 285 287 284 282
134 137 137 142 153 169 193 217 222 228 237 248 252 255 257 258 263 272 293 348 335 297 285 301 272 271 265 269 275 272 269 268 266 267 269 269 268 271 278 285 291 291 289 287
138 142 152 172 188 200 207 216 225 241 251 259 261 254 253 260 272 289 293 288 243 245 265 240 224 248 257 273 275 280 282 289 289 283 280 284 283 280 282 287 292 294 294 290
168 189 180 208 220 220 219 225 235 239 243 252 271 284 285 262 248 256 267 267 264 262 272 274 263 252 267 273 276 279 282 283 287 293 302 300 298 300 298 298 295 290 289 291
187 179 185 204 203 221 230 230 241 258 264 262 275 283 277 269 261 267 279 279 273 275 285 293 297 294 291 288 293 297 297 302 310 309 303 301 302 300 300 296 293 292 292 296
Height
1496 1494 1494 1497 1498 1499 1500 1499 1501 1501 1501 1501 1504 1507 1509 1512 1514 1516 1517 1518 1519 1520 1520 1521 1520 1520 1521 1521 1521 1522 1522 1522 1522 1522 1522 1522 1521 1521 1521 1520 1520 1519 1519 1518
1501 1496 1496 1498 1496 1497 1498 1498 1499 1500 1501 1502 1506 1508 1510 1512 1514 1515 1516 1518 1519 1519 1520 1520 1520 1520 1520 1520 1520 1520 1520 1520 1520 1520 1520 1520 1519 1519 1519 1518 1518 1518 1517 1516
1501 1496 1498 1501 1495 1495 1497 1496 1497 1499 1501 1503 1506 1508 1511 1512 1513 1515 1516 1517 1518 1518 1519 1519 1519 1519 1518 1519 1519 1519 1519 1519 1519 1519 1518 1518 1517 1517 1516 1516 1516 1515 1514 1514
1499 1504 1513 1497 1493 1493 1495 1496 1496 1498 1500 1504 1506 1509 1511 1512 1513 1514 1515 1516 1516 1517 1518 1518 1518 1518 1517 1518 1517 1517 1517 1517 1517 1517 1516 1516 1515 1514 1514 1514 1513 1512 1512 1511
1499 1501 1499 1495 1493 1494 1496 1497 1497 1498 1501 1504 1507 1508 1510 1512 1513 1514 1514 1515 1515 1516 1517 1517 1517 1517 1516 1516 1516 1516 1515 1515 1515 1515 1514 1514 1513 1513 1512 1511 1511 1510 1509 1508
1500 1505 1505 1494 1492 1495 1496 1499 1499 1500 1502 1504 1506 1504 1507 1511 1512 1513 1513 1514 1514 1515 1515 1516 1516 1516 1515 1515 1515 1514 1514 1513 1513 1513 1513 1512 1512 1511 1510 1509 1509 1508 1507 1506
1499 1501 1493 1492 1495 1496 1502 1500 1500 1501 1503 1504 1505 1506 1509 1511 1512 1513 1513 1513 1514 1514 1514 1514 1515 1514 1514 1514 1513 1513 1513 1512 1512 1511 1511 1510 1509 1508 1508 1507 1507 1506 1505 1504
1496 1500 1498 1495 1495 1496 1499 1501 1501 1502 1504 1505 1507 1508 1509 1511 1512 1512 1512 1513 1513 1513 1513 1513 1513 1513 1512 1512 1512 1511 1511 1510 1510 1509 1509 1509 1508 1507 1506 1505 1505 1504 1503 1502
1492 1495 1496 1497 1498 1500 1501 1502 1502 1503 1504 1505 1506 1508 1509 1511 1511 1511 1512 1512 1513 1513 1513 1513 1512 1512 1511 1511 1510 1509 1509 1509 1508 1507 1507 1506 1506 1505 1504 1504 1503 1502 1501 1501
1495 1493 1497 1498 1499 1500 1501 1502 1502 1503 1504 1505 1505 1507 1508 1510 1511 1511 1511 1512 1512 1512 1512 1512 1511 1511 1510 1510 1509 1508 1508 1507 1506 1505 1505 1504 1504 1504 1503 1502 1501 1500 1499 1499
1495 1496 1497 1498 1499 1500 1500 1501 1501 1502 1503 1504 1504 1505 1507 1508 1509 1510 1510 1511 1511 1511 1511 1511 1510 1509 1509 1508 1507 1507 1506 1505 1504 1504 1503 1502 1501 1500 1500 1499 1498 1498 1498 1497
1491 1494 1494 1496 1498 1499 1499 1500 1501 1501 1502 1503 1504 1505 1506 1507 1508 1509 1509 1509 1509 1509 1510 1509 1509 1508 1507 1507 1506 1505 1504 1504 1503 1502 1501 1500 1499 1498 1497 1497 1496 1496 1495 1495
1493 1494 1494 1495 1496 1497 1498 1499 1500 1501 1502 1502 1503 1504 1505 1506 1506 1507 1507 1507 1507 1508 1508 1507 1507 1506 1505 1505 1504 1503 1502 1502 1501 1500 1499 1498 1497 1497 1496 1495 1494 1493 1492 1492
1493 1493 1494 1495 1495 1496 1497 1498 1499 1500 1501 1502 1502 1503 1504 1504 1505 1505 1506 1506 1506 1506 1505 1505 1505 1504 1503 1502 1501 1501 1500 1499 1498 1497 1497 1496 1495 1495 1494 1493 1492 1490 1490 1489
1492 1493 1493 1494 1495 1495 1496 1498 1498 1499 1500 1500 1501 1502 1502 1503 1503 1504 1504 1504 1504 1503 1503 1502 1502 1501 1500 1500 1498 1498 1498 1497 1496 1495 1494 1493 1493 1492 1491 1490 1489 1488 1487 1486
1490 1491 1492 1493 1493 1494 1495 1496 1497 1498 1499 1499 1500 1500 1501 1501 1502 1502 1502 1502 1501 1501 1500 1499 1499 1498 1497 1497 1496 1495 1494 1493 1492 1492 1492 1491 1490 1489 1488 1487 1485 1484 1483 1483
1489 1489 1490 1491 1492 1493 1494 1495 1496 1496 1497 1498 1498 1498 1499 1499 1499 1500 1500 1500 1499 1498 1498 1497 1496 1495 1494 1493 1493 1493 1492 1491 1489 1489 1488 1487 1487 1486 1484 1483 1482 1481 1480 1480
1486 1488 1489 1490 1491 1492 1493 1494 1494 1495 1495 1496 1496 1496 1497 1497 1498 1498 1498 1497 1496 1496 1495 1494 1493 1492 1491 1490 1490 1489 1489 1488 1487 1486 1485 1484 1484 1482 1481 1480 1478 1477 1476 1476
1485 1486 1487 1488 1489 1490 1491 1492 1493 1493 1494 1494 1495 1495 1495 1496 1496 1496 1495 1495 1494 1493 1493 1492 1490 1489 1488 1487 1486 1485 1485 1484 1483 1483 1482 1481 1480 1479 1478 1476 1475 1474 1473 1472
1484 1485 1486 1487 1488 1489 1490 1490 1491 1491 1492 1493 1493 1493 1494 1494 1494 1493 1493 1492 1492 1491 1490 1489 1488 1487 1485 1484 1483 1482 1482 1481 1480 1480 1479 1478 1477 1476 1475 1474 1472 1471 1469 1468
1483 1484 1485 1486 1487 1488 1488 1489 1489 1490 1490 1491 1491 1491 1491 1491 1491 1491 1490 1490 1489 1488 1487 1486 1485 1484 1482 1481 1479 1479 1478 1478 1477 1476 1475 1475 1474 1473 1472 1470 1469 1468 1467 1465
1482 1483 1484 1485 1486 1487 1487 1488 1488 1489 1489 1489 1489 1489 1489 1489 1488 1488 1487 1487 1486 1484 1484 1483 1482 1481 1479 1477 1477 1476 1475 1474 1474 1473 1472 1471 1470 1469 1468 1467 1466 1465 1463 1461
1482 1482 1483 1484 1485 1485 1486 1487 1487 1487 1487 1487 1487 1487 1486 1486 1486 1485 1484 1483 1482 1481 1481 1480 1479 1477 1475 1474 1473 1473 1472 1471 1470 1469 1468 1467 1466 1465 1464 1463 1462 1461 1459 1458
1481 1482 1482 1483 1484 1484 1484 1485 1485 1485 1485 1485 1484 1484 1483 1483 1483 1482 1482 1480 1479 1478 1477 1476 1475 1474 1472 1471 1470 1469 1469 1468 1467 1466 1465 1464 1463 1462 1460 1459 1458 1457 1455 1454
1480 1481 1481 1482 1482 1483 1483 1483 1482 1482 1482 1482 1482 1481 1481 1480 1480 1479 1478 1477 1476 1475 1474 1473 1472 1471 1470 1469 1468 1467 1466 1465 1464 1463 1462 1461 1460 1458 1457 1456 1455 1453 1452 1450
1479 1480 1480 1480 1481 1481 1481 1481 1480 1480 1480 1480 1479 1479 1478 1478 1477 1476 1475 1475 1473 1472 1472 1471 1469 1468 1467 1466 1465 1464 1463 1462 1461 1460 1459 1458 1457 1456 1455 1453 1452 1450 1449 1447
1478 1478 1478 1479 1479 1479 1479 1479 1478 1478 1478 1477 1477 1476 1476 1475 1475 1474 1474 1473 1472 1471 1470 1468 1467 1466 1465 1464 1463 1462 1461 1460 1459 1458 1457 1456 1454 1453 1452 1451 1450 1448 1447 1445